1486980000.75,16539,11.5,74254.5,0.09,-41.99,-42.37,0,*7B
1486980001.96,16540,11.5,74256.5,0.09,-41.67,-41.99,0,*73
1486980003.17,16541,11.5,74254.8,0.09,-41.49,-41.81,0,*77
1486980004.4,16542,11.5,74258.3,0.09,-42.05,-42.45,0,*74
1486980005.64,16543,11.5,74252.5,0.09,-43.09,-43.29,0,*73
1486980006.88,16544,11.5,74250.5,0.09,-42.69,-43.21,0,*7B
1486980008.12,16545,11.5,74254.5,0.07,-42.45,-42.63,0,*7D
1486980009.31,16546,11.5,74254.5,0.09,-41.61,-41.99,0,*73
1486980010.53,16547,11.5,74256.5,0.09,-41.41,-41.67,0,*71
1486980011.75,16548,11.5,74254.5,0.09,-41.87,-42.19,0,*7E
1486980013.0,16549,11.5,74252.0,0.11,-42.13,-42.31,0,*42
1486980014.22,16550,11.5,74258.5,0.11,-42.75,-43.01,0,*48
1486980015.4,16551,11.5,74254.8,0.09,-41.87,-42.37,0,*7A
1486980016.61,16552,11.5,74254.8,0.09,-41.41,-41.81,0,*7D
1486980017.83,16553,11.5,74258.3,0.11,-42.13,-42.51,0,*4F
1486980019.05,16554,11.5,74256.8,0.09,-42.19,-42.25,0,*78
1486980020.29,16555,11.5,74256.3,0.11,-41.41,-41.81,0,*43
1486980021.55,16556,11.5,74258.0,0.11,-42.57,-42.83,0,*45
1486980022.79,16557,11.5,74254.8,0.11,-42.57,-43.01,0,*4F
1486980024.05,16558,11.5,74256.0,0.11,-42.57,-42.83,0,*4B
1486980025.32,16559,11.5,74252.8,0.11,-41.93,-41.81,0,*40
1486980026.58,16560,11.5,74256.3,0.11,-41.35,-41.81,0,*46
1486980027.85,16561,11.5,74254.8,0.11,-42.31,-42.57,0,*48
1486980029.11,16562,11.5,74256.5,0.13,-42.95,-43.35,0,*42
1486980030.37,16563,11.5,74252.8,0.13,-43.21,-43.81,0,*42
1486980031.61,16564,11.5,74258.5,0.09,-43.09,-43.29,0,*76
1486980032.82,16565,11.5,74256.3,0.09,-42.63,-43.09,0,*78
1486980034.09,16566,11.5,74254.8,0.07,-42.45,-42.69,0,*76
1486980035.35,16567,11.5,74252.5,0.07,-42.45,-42.69,0,*77
1486980036.55,16568,11.5,74254.3,0.09,-43.61,-43.95,0,*73
1486980037.81,16569,11.5,74252.8,0.07,-42.83,-43.21,0,*7E
1486980039.05,16570,11.5,74256.8,0.07,-42.25,-42.45,0,*79
1486980040.27,16571,11.5,74256.3,0.07,-42.63,-43.01,0,*7B
1486980041.48,16572,11.5,74254.0,0.07,-42.63,-43.01,0,*78
1486980042.72,16573,11.5,74252.3,0.07,-41.99,-42.45,0,*7E
1486980043.97,16574,11.5,74254.0,0.07,-41.23,-41.41,0,*7F
1486980045.22,16575,11.5,74254.3,0.07,-41.23,-41.41,0,*7E
1486980046.46,16576,11.5,74258.5,0.09,-41.35,-41.67,0,*70
1486980047.7,16577,11.5,74256.8,0.09,-42.69,-43.09,0,*71
1486980048.91,16578,11.5,74256.8,0.09,-42.89,-43.09,0,*70
1486980050.13,16579,11.5,74256.3,0.09,-42.37,-42.69,0,*73
1486980051.34,16580,11.5,74256.8,0.09,-43.21,-43.61,0,*7A
1486980052.61,16581,11.44,74254.3,0.07,-41.81,-42.19,0,*73
1486980053.82,16582,11.5,74254.5,0.07,-41.99,-42.25,0,*76
1486980055.06,16583,11.44,74254.3,0.07,-41.41,-41.81,0,*7F
1486980056.28,16584,11.5,74254.3,0.09,-41.87,-42.19,0,*7E
1486980057.49,16585,11.5,74254.0,0.09,-42.89,-43.29,0,*70
1486980058.73,16586,11.5,74252.5,0.09,-42.19,-42.57,0,*72
1486980059.97,16587,11.5,74252.5,0.09,-43.29,-43.67,0,*73
1486980061.21,16588,11.5,74258.3,0.07,-42.25,-42.45,0,*7E
1486980062.45,16589,11.44,74254.3,0.07,-42.37,-42.57,0,*7F
1486980063.67,16590,11.5,74252.3,0.09,-43.01,-43.29,0,*75
1486980064.92,16591,11.5,74256.0,0.07,-43.01,-43.29,0,*7A
1486980066.16,16592,11.5,74256.5,0.07,-41.41,-41.67,0,*77
1486980067.35,16593,11.5,74254.5,0.09,-41.87,-42.25,0,*77
1486980068.56,16594,11.44,74252.3,0.09,-42.05,-42.25,0,*79
1486980069.8,16595,11.5,74254.8,0.09,-41.81,-42.05,0,*75
1486980071.01,16596,11.5,74256.3,0.09,-42.25,-42.45,0,*7F
1486980072.22,16597,11.5,74254.8,0.09,-43.21,-43.49,0,*76
1486980073.46,16598,11.5,74256.8,0.07,-43.41,-43.81,0,*75
1486980074.67,16599,11.5,74254.5,0.09,-41.81,-42.25,0,*7B
1486980075.9,16600,11.5,74254.3,0.09,-42.45,-42.57,0,*76
1486980077.12,16601,11.44,74252.0,0.07,-43.61,-43.87,0,*72
1486980078.36,16602,11.44,74254.0,0.07,-43.21,-43.61,0,*7D
1486980079.55,16603,11.44,74254.0,0.05,-41.87,-42.13,0,*74
1486980080.78,16604,11.5,74252.8,0.05,-42.45,-42.69,0,*73
1486980082.03,16605,11.44,74252.0,0.07,-42.89,-43.09,0,*77
1486980083.25,16606,11.5,74254.5,0.07,-42.89,-43.01,0,*7C
1486980084.47,16607,11.44,74252.3,0.07,-43.01,-43.41,0,*78
1486980085.69,16608,11.44,74252.8,0.07,-43.61,-43.87,0,*7B
1486980086.9,16609,11.5,74258.3,0.05,-43.67,-43.87,0,*7E
1486980088.11,16610,11.5,74254.0,0.05,-42.89,-43.09,0,*71
1486980089.33,16611,11.5,74254.0,0.01,-42.19,-42.51,0,*71
1486980090.55,16612,11.5,74252.0,0.05,-42.95,-43.35,0,*71
1486980091.76,16613,11.5,74254.5,0.01,-42.75,-43.21,0,*7F
1486980092.95,16614,11.5,74256.5,0.01,-42.75,-43.01,0,*7A
1486980094.17,16615,11.5,74256.0,0.01,-42.19,-42.37,0,*75
1486980095.38,16616,11.5,74256.0,0.01,-41.11,-41.35,0,*7C
1486980096.6,16617,11.44,74252.0,0.05,-41.55,-41.87,0,*70
1486980097.84,16618,11.44,74256.5,0.05,-42.69,-42.95,0,*73
1486980099.05,16619,11.5,74258.3,0.05,-42.45,-42.63,0,*75
1486980100.25,16620,11.5,74252.3,0.05,-42.25,-42.51,0,*78
1486980101.43,16621,11.44,74252.0,0.05,-42.51,-42.89,0,*7F
1486980102.66,16622,11.44,74254.8,0.05,-42.95,-43.35,0,*72
1486980103.87,16623,11.5,74252.0,0.05,-42.95,-43.15,0,*71
1486980105.09,16624,11.5,74250.8,0.05,-42.63,-43.09,0,*72
1486980106.31,16625,11.5,74254.0,0.05,-42.69,-42.75,0,*73
1486980107.52,16626,11.5,74254.3,0.05,-41.49,-41.67,0,*71
1486980108.74,16627,11.44,74248.8,0.01,-41.49,-41.67,0,*74
1486980109.98,16628,11.44,74250.3,0.07,-41.35,-41.61,0,*70
1486980111.2,16629,11.44,74254.0,0.09,-41.03,-41.23,0,*7C
1486980112.44,16630,11.44,74252.8,0.09,-41.81,-42.19,0,*74
1486980113.66,16631,11.5,74256.8,0.07,-42.25,-42.37,0,*7A
1486980114.89,16632,11.5,74256.0,0.09,-42.57,-42.69,0,*79
1486980116.12,16633,11.5,74256.5,0.09,-42.57,-42.69,0,*78
1486980117.36,16634,11.44,74254.8,0.09,-42.57,-42.69,0,*7F
1486980118.62,16635,11.44,74252.3,0.07,-42.45,-42.83,0,*77
1486980119.84,16636,11.5,74258.3,0.09,-43.01,-43.21,0,*72
1486980121.02,16637,11.44,74258.0,0.09,-42.63,-42.89,0,*75
1486980122.26,16638,11.5,74254.5,0.07,-42.57,-42.89,0,*73
1486980123.48,16639,11.44,74256.8,0.09,-42.45,-42.63,0,*7B
1486980124.74,16640,11.5,74254.5,0.07,-42.45,-42.69,0,*71
1486980125.99,16641,11.44,74250.0,0.07,-42.45,-42.63,0,*7A
1486980127.2,16642,11.44,74254.0,0.09,-43.21,-43.41,0,*75
1486980128.44,16643,11.44,74252.3,0.07,-42.69,-43.01,0,*73
1486980129.66,16644,11.5,74254.5,0.05,-42.63,-43.09,0,*74
1486980130.92,16645,11.5,74256.8,0.07,-42.69,-43.21,0,*77
1486980132.13,16646,11.5,74256.8,0.05,-42.63,-42.69,0,*71
1486980133.35,16647,11.44,74252.0,0.01,-42.69,-42.75,0,*73
1486980134.56,16648,11.44,74252.0,0.05,-41.73,-42.05,0,*77
1486980135.76,16649,11.44,74250.3,0.05,-41.73,-42.05,0,*76
1486980136.96,16650,11.44,74254.0,0.05,-42.25,-42.51,0,*7F
1486980138.22,16651,11.5,74254.0,0.07,-41.81,-42.05,0,*70
1486980139.44,16652,11.44,74254.0,0.07,-41.61,-41.87,0,*74
1486980140.63,16653,11.44,74252.3,0.09,-41.99,-42.37,0,*74
1486980141.81,16654,11.44,74254.0,0.09,-41.87,-42.25,0,*7F
1486980143.03,16655,11.5,74258.3,0.09,-41.41,-41.81,0,*79
1486980144.23,16656,11.44,74252.0,0.09,-42.57,-42.89,0,*75
1486980145.5,16657,11.44,74252.5,0.07,-42.45,-42.69,0,*77
1486980146.74,16658,11.44,74250.3,0.07,-41.49,-42.05,0,*7D
1486980147.95,16659,11.44,74252.5,0.09,-41.41,-41.81,0,*75
1486980149.19,16660,11.5,74254.5,0.07,-41.03,-41.23,0,*7F
1486980150.41,16661,11.44,74254.0,0.11,-41.17,-41.41,0,*48
1486980151.65,16662,11.5,74254.0,0.09,-40.97,-41.23,0,*7F
1486980152.93,16663,11.44,74254.3,0.13,-42.95,-43.21,0,*45
1486980154.15,16664,11.44,74252.0,0.11,-42.51,-42.75,0,*48
1486980155.42,16665,11.5,74252.5,0.11,-41.81,-42.19,0,*4D
1486980156.65,16666,11.44,74252.3,0.11,-41.41,-41.93,0,*43
1486980157.93,16667,11.44,74252.0,0.11,-41.93,-42.31,0,*46
1486980159.15,16668,11.44,74250.3,0.13,-42.13,-42.37,0,*46
1486980160.37,16669,11.44,74252.0,0.11,-41.73,-41.99,0,*47
1486980161.61,16670,11.44,74254.8,0.13,-41.99,-42.19,0,*42
1486980162.89,16671,11.44,74252.8,0.13,-41.93,-42.19,0,*49
1486980164.11,16672,11.44,74250.5,0.11,-43.15,-43.35,0,*4B
1486980165.34,16673,11.44,74254.3,0.11,-43.01,-43.35,0,*4F
1486980166.55,16674,11.44,74250.8,0.11,-43.35,-43.75,0,*4B
1486980167.74,16675,11.44,74254.5,0.09,-42.51,-42.63,0,*76
1486980168.93,16676,11.5,74252.5,0.09,-42.63,-43.01,0,*71
1486980170.12,16677,11.44,74254.0,0.09,-43.61,-43.95,0,*7E
1486980171.36,16678,11.44,74250.3,0.07,-43.21,-43.49,0,*7A
1486980172.57,16679,11.5,74254.5,0.09,-43.67,-43.87,0,*75
1486980173.76,16680,11.44,74250.0,0.09,-43.61,-43.87,0,*75
1486980175.0,16681,11.44,74252.8,0.07,-42.25,-42.45,0,*74
1486980176.24,16682,11.44,74250.5,0.09,-41.67,-42.05,0,*78
1486980177.42,16683,11.44,74252.5,0.09,-41.99,-42.25,0,*7A
1486980178.67,16684,11.44,74252.0,0.07,-42.25,-42.45,0,*71
1486980179.88,16685,11.44,74254.8,0.09,-42.69,-43.01,0,*77
1486980181.07,16686,11.44,74250.5,0.09,-43.01,-43.41,0,*7F
1486980182.28,16687,11.44,74250.3,0.09,-43.49,-43.81,0,*7E
1486980183.53,16688,11.44,74254.5,0.07,-42.45,-42.63,0,*7F
1486980184.77,16689,11.44,74254.0,0.07,-42.25,-42.57,0,*7F
1486980186.04,16690,11.44,74256.3,0.07,-41.81,-42.19,0,*70
1486980187.25,16691,11.44,74254.5,0.09,-42.05,-42.25,0,*7F
1486980188.49,16692,11.5,74254.8,0.07,-41.61,-42.05,0,*71
1486980189.68,16693,11.44,74250.8,0.09,-42.63,-43.01,0,*7A
1486980190.94,16694,11.44,74252.0,0.07,-42.45,-42.83,0,*7C
1486980192.16,16695,11.44,74252.5,0.09,-41.87,-42.19,0,*7D
1486980193.36,16696,11.44,74252.3,0.09,-42.05,-42.37,0,*7B
1486980194.55,16697,11.44,74252.3,0.09,-41.61,-41.99,0,*7C
1486980195.76,16698,11.44,74252.5,0.09,-41.61,-42.05,0,*75
1486980196.97,16699,11.44,74250.0,0.09,-42.69,-43.01,0,*7A
1486980198.19,16700,11.44,74252.0,0.11,-42.75,-43.01,0,*4F
1486980199.46,16701,11.44,74254.8,0.11,-41.81,-42.31,0,*44
1486980200.68,16702,11.44,74250.5,0.11,-42.75,-43.15,0,*48
1486980201.92,16703,11.44,74252.0,0.11,-43.21,-43.41,0,*48
1486980203.14,16704,11.44,74252.5,0.09,-42.25,-42.45,0,*76
1486980204.32,16705,11.44,74250.8,0.09,-42.63,-42.89,0,*75
1486980205.53,16706,11.44,74254.0,0.09,-42.25,-42.45,0,*74
1486980206.77,16707,11.44,74252.8,0.09,-42.69,-43.09,0,*74
1486980207.97,16708,11.44,74248.5,0.09,-43.61,-43.95,0,*77
1486980209.17,16709,11.44,74252.5,0.09,-43.21,-43.61,0,*79
1486980210.39,16710,11.44,74254.5,0.09,-42.25,-42.45,0,*73
1486980211.6,16711,11.44,74250.8,0.09,-42.37,-42.69,0,*7F
1486980212.81,16712,11.44,74252.8,0.09,-42.19,-42.37,0,*7B
1486980214.02,16713,11.44,74248.0,0.09,-42.89,-43.29,0,*7D
1486980215.24,16714,11.44,74254.3,0.09,-43.09,-43.49,0,*75
1486980216.46,16715,11.44,74248.0,0.07,-43.01,-43.49,0,*72
1486980217.73,16716,11.44,74254.3,0.07,-42.57,-42.83,0,*74
1486980218.97,16717,11.44,74254.5,0.07,-42.89,-43.29,0,*77
1486980220.18,16718,11.44,74258.5,0.09,-42.45,-42.63,0,*79
1486980221.42,16719,11.44,74250.8,0.07,-42.69,-42.89,0,*7C
1486980222.63,16720,11.44,74250.3,0.09,-42.57,-43.01,0,*74
1486980223.84,16721,11.44,74254.8,0.09,-42.25,-42.45,0,*71
1486980225.06,16722,11.44,74250.8,0.09,-41.67,-41.87,0,*7A
1486980226.27,16723,11.44,74254.0,0.07,-42.63,-42.89,0,*7F
1486980227.48,16724,11.44,74250.5,0.09,-42.57,-43.01,0,*70
1486980228.73,16725,11.44,74252.8,0.07,-42.69,-43.41,0,*76
1486980229.96,16726,11.44,74252.5,0.09,-42.05,-42.45,0,*74
1486980231.22,16727,11.44,74252.8,0.07,-42.83,-43.21,0,*76
1486980232.44,16728,11.44,74254.8,0.09,-43.01,-43.21,0,*7C
1486980233.65,16729,11.44,74254.8,0.09,-42.19,-42.37,0,*73
1486980234.89,16730,11.44,74248.5,0.09,-42.83,-43.21,0,*7E
1486980236.1,16731,11.44,74252.0,0.09,-43.21,-43.61,0,*72
1486980237.32,16732,11.44,74252.3,0.07,-43.41,-43.61,0,*79
1486980238.52,16733,11.44,74250.8,0.09,-43.01,-43.41,0,*70
1486980239.79,16734,11.44,74254.3,0.07,-43.09,-43.29,0,*7F
1486980241.05,16735,11.44,74250.3,0.07,-42.45,-42.69,0,*72
1486980242.32,16736,11.5,74258.3,0.07,-42.69,-43.09,0,*78
1486980243.51,16737,11.44,74252.0,0.05,-42.89,-43.15,0,*78
1486980244.75,16738,11.44,74254.0,0.05,-42.69,-43.09,0,*74
1486980245.96,16739,11.44,74250.5,0.05,-42.89,-43.29,0,*79
1486980247.17,16740,11.44,74252.5,0.01,-43.81,-44.41,0,*73
1486980248.38,16741,11.44,74250.8,0.05,-43.49,-43.67,0,*71
1486980249.57,16742,11.44,74252.0,0.01,-42.75,-43.15,0,*7D
1486980250.79,16743,11.44,74250.3,0.05,-42.25,-42.45,0,*79
1486980252.02,16744,11.44,74254.3,0.05,-42.45,-42.69,0,*76
1486980253.26,16745,11.44,74254.3,0.05,-42.05,-42.45,0,*7D
1486980254.47,16746,11.44,74254.5,0.05,-42.63,-42.95,0,*73
1486980255.66,16747,11.44,74254.3,0.05,-43.35,-43.61,0,*7A
1486980256.88,16748,11.44,74252.0,0.05,-41.99,-42.31,0,*75
1486980258.06,16749,11.44,74252.0,0.05,-42.75,-43.01,0,*77
1486980259.3,16750,11.44,74252.0,0.07,-43.95,-44.47,0,*77
1486980260.51,16751,11.44,74254.3,0.05,-43.55,-43.95,0,*70
1486980261.76,16752,11.44,74248.0,0.05,-42.69,-42.95,0,*7C
1486980262.97,16753,11.44,74250.3,0.01,-42.51,-42.69,0,*71
1486980264.21,16754,11.44,74250.5,0.01,-42.05,-42.31,0,*7A
1486980265.4,16755,11.44,74252.0,0.05,-42.51,-42.89,0,*7D
1486980266.59,16756,11.44,74252.3,0.05,-42.63,-42.75,0,*7C
1486980267.78,16757,11.44,74254.0,0.01,-42.51,-42.75,0,*78
1486980269.0,16758,11.44,74250.5,0.05,-42.95,-43.35,0,*7E
1486980270.24,16759,11.44,74252.3,0.05,-43.09,-43.29,0,*76
1486980271.45,16760,11.44,74252.0,0.05,-42.05,-42.25,0,*7C
1486980272.64,16761,11.44,74252.0,0.05,-42.25,-42.51,0,*7C
1486980273.83,16762,11.44,74254.3,0.05,-41.87,-42.13,0,*72
1486980275.05,16763,11.44,74254.5,0.05,-42.13,-42.31,0,*7D
1486980276.27,16764,11.44,74252.3,0.05,-41.41,-41.55,0,*7F
1486980277.53,16765,11.44,74254.0,0.07,-42.19,-42.45,0,*70
1486980278.75,16766,11.44,74254.3,0.07,-41.41,-41.61,0,*78
1486980279.94,16767,11.44,74254.8,0.09,-41.87,-42.25,0,*7E
1486980281.15,16768,11.44,74252.8,0.09,-42.37,-42.69,0,*71
1486980282.39,16769,11.44,74248.3,0.09,-41.81,-42.19,0,*79
1486980283.63,16770,11.44,74252.8,0.07,-42.25,-42.45,0,*7B
1486980284.85,16771,11.44,74252.5,0.07,-41.99,-42.37,0,*7B
1486980286.03,16772,11.44,74250.8,0.09,-41.17,-41.41,0,*72
1486980287.24,16773,11.44,74250.5,0.09,-42.25,-42.45,0,*76
1486980288.52,16774,11.44,74250.0,0.11,-42.31,-42.19,0,*44
1486980289.76,16775,11.44,74250.8,0.11,-41.41,-41.81,0,*43
1486980290.97,16776,11.44,74254.3,0.11,-41.17,-41.41,0,*4F
1486980292.23,16777,11.44,74254.3,0.11,-41.55,-41.93,0,*47
1486980293.48,16778,11.44,74252.3,0.13,-41.73,-42.19,0,*4F
1486980294.7,16779,11.44,74252.0,0.13,-42.63,-43.15,0,*41
1486980295.93,16780,11.44,74248.0,0.13,-43.15,-43.35,0,*45
1486980297.16,16781,11.44,74258.3,0.13,-42.37,-42.75,0,*40
1486980298.4,16782,11.44,74254.0,0.11,-43.41,-43.81,0,*4B
1486980299.64,16783,11.44,74254.3,0.11,-42.31,-42.51,0,*40
1486980300.89,16784,11.44,74254.3,0.11,-42.13,-42.31,0,*41
1486980302.14,16785,11.44,74252.3,0.11,-42.31,-42.51,0,*46
1486980303.38,16786,11.44,74252.3,0.13,-42.51,-42.83,0,*4E
1486980304.63,16787,11.44,74250.5,0.11,-42.83,-43.35,0,*4E
1486980305.9,16788,11.44,74252.8,0.13,-41.93,-42.19,0,*4E
1486980307.11,16789,11.44,74250.5,0.15,-42.37,-42.63,0,*49
1486980308.32,16790,11.44,74252.3,0.11,-41.41,-41.73,0,*45
1486980309.54,16791,11.44,74252.0,0.13,-41.73,-41.99,0,*43
1486980310.77,16792,11.44,74252.3,0.11,-42.37,-42.63,0,*47
1486980312.05,16793,11.44,74252.0,0.13,-41.93,-42.31,0,*4E
1486980313.29,16794,11.44,74252.0,0.13,-42.57,-42.75,0,*42
1486980314.52,16795,11.44,74252.0,0.13,-41.41,-41.61,0,*41
1486980315.78,16796,11.44,74252.5,0.13,-41.55,-41.93,0,*4A
1486980317.04,16797,11.44,74254.5,0.13,-41.99,-42.31,0,*40
1486980318.26,16798,11.44,74252.3,0.13,-41.17,-41.41,0,*4D
1486980319.46,16799,11.44,74250.0,0.15,-42.13,-42.25,0,*4C
1486980320.71,16800,11.44,74252.3,0.15,-42.57,-43.09,0,*4C
1486980321.93,16801,11.44,74252.3,0.15,-42.25,-42.45,0,*41
1486980323.18,16802,11.44,74252.3,0.15,-43.29,-43.67,0,*4E
1486980324.4,16803,11.44,74250.5,0.13,-42.63,-43.15,0,*43
1486980325.63,16804,11.44,74254.3,0.13,-42.75,-43.15,0,*43
1486980326.87,16805,11.44,74248.0,0.13,-42.51,-42.57,0,*43
1486980328.09,16806,11.44,74250.3,0.13,-42.63,-43.15,0,*46
1486980329.35,16807,11.44,74250.3,0.13,-42.95,-43.35,0,*4C
1486980330.62,16808,11.44,74254.5,0.13,-42.57,-42.95,0,*46
1486980331.9,16809,11.44,74252.5,0.13,-42.57,-42.95,0,*47
1486980333.12,16810,11.44,74254.3,0.13,-42.63,-43.01,0,*44
1486980334.37,16811,11.44,74254.3,0.13,-42.31,-42.51,0,*46
1486980335.59,16812,11.44,74254.3,0.13,-41.11,-41.17,0,*45
1486980336.82,16813,11.44,74252.5,0.15,-40.85,-41.11,0,*48
1486980338.03,16814,11.44,74252.0,0.17,-41.73,-42.13,0,*44
1486980339.22,16815,11.44,74252.3,0.15,-41.11,-41.49,0,*4F
1486980340.44,16816,11.44,74252.0,0.17,-41.87,-42.13,0,*4D
1486980341.66,16817,11.44,74250.3,0.17,-41.87,-42.25,0,*49
1486980342.88,16818,11.44,74254.5,0.17,-42.13,-42.51,0,*4B
1486980344.15,16819,11.44,74254.3,0.17,-41.93,-42.05,0,*40
1486980345.41,16820,11.44,74250.3,0.17,-42.05,-42.45,0,*42
1486980346.66,16821,11.44,74252.5,0.17,-42.13,-42.31,0,*47
1486980347.9,16822,11.44,74252.0,0.17,-41.73,-42.05,0,*46
1486980349.1,16823,11.44,74254.0,0.19,-42.25,-42.63,0,*49
1486980350.33,16824,11.44,74252.5,0.19,-43.49,-43.67,0,*40
1486980351.55,16825,11.44,74248.8,0.17,-43.15,-43.35,0,*41
1486980352.81,16826,11.44,74250.5,0.17,-42.31,-42.57,0,*40
1486980354.07,16827,11.44,74252.8,0.17,-42.45,-42.57,0,*42
1486980355.34,16828,11.44,74256.0,0.17,-43.09,-43.29,0,*4C
1486980356.57,16829,11.44,74250.3,0.15,-43.09,-43.35,0,*42
1486980357.81,16830,11.44,74250.5,0.15,-43.55,-43.81,0,*4C
1486980359.03,16831,11.44,74250.3,0.15,-43.49,-43.81,0,*40
1486980360.27,16832,11.44,74250.5,0.15,-43.55,-43.81,0,*4E
1486980361.52,16833,11.44,74252.0,0.15,-42.95,-43.29,0,*40
1486980362.77,16834,11.44,74248.5,0.15,-42.69,-43.09,0,*46
1486980364.0,16835,11.44,74248.5,0.13,-43.35,-43.61,0,*47
1486980365.24,16836,11.44,74252.3,0.13,-42.63,-42.83,0,*4B
1486980366.5,16837,11.44,74252.8,0.13,-42.19,-42.51,0,*48
1486980367.72,16838,11.44,74250.8,0.13,-42.37,-42.63,0,*4A
1486980368.94,16839,11.44,74254.5,0.15,-42.25,-42.57,0,*49
1486980370.14,16840,11.44,74250.3,0.15,-42.89,-43.15,0,*46
1486980371.37,16841,11.44,74250.0,0.15,-43.29,-43.49,0,*45
1486980372.58,16842,11.44,74250.0,0.11,-42.13,-42.37,0,*42
1486980373.81,16843,11.44,74254.5,0.13,-42.37,-42.75,0,*41
1486980375.04,16844,11.44,74250.8,0.13,-42.75,-43.01,0,*42
1486980376.27,16845,11.44,74248.8,0.11,-43.41,-43.81,0,*4F
1486980377.49,16846,11.44,74250.8,0.11,-43.15,-43.41,0,*41
1486980378.75,16847,11.44,74250.5,0.13,-42.95,-43.35,0,*48
1486980380.03,16848,11.44,74248.8,0.13,-42.31,-42.31,0,*4C
1486980381.25,16849,11.44,74250.0,0.11,-42.13,-42.51,0,*49
1486980382.47,16850,11.44,74248.8,0.11,-42.63,-43.01,0,*42
1486980383.72,16851,11.44,74254.5,0.13,-42.31,-42.63,0,*43
1486980384.97,16852,11.44,74248.3,0.13,-42.37,-42.57,0,*41
1486980386.19,16853,11.44,74252.3,0.13,-42.75,-43.15,0,*41
1486980387.44,16854,11.44,74250.3,0.13,-42.75,-43.21,0,*41
1486980388.71,16855,11.44,74252.0,0.13,-42.57,-42.95,0,*4E
1486980389.93,16856,11.44,74254.0,0.11,-42.75,-43.01,0,*43
1486980391.15,16857,11.44,74254.3,0.11,-43.41,-43.75,0,*47
1486980392.4,16858,11.44,74254.0,0.11,-42.75,-42.95,0,*41
1486980393.62,16859,11.44,74252.0,0.11,-42.75,-43.15,0,*49
1486980394.86,16860,11.44,74250.8,0.11,-42.63,-42.95,0,*4D
1486980396.09,16861,11.44,74252.5,0.13,-42.75,-43.01,0,*45
1486980397.31,16862,11.44,74250.5,0.11,-42.13,-42.51,0,*40
1486980398.56,16863,11.44,74248.3,0.11,-42.31,-42.63,0,*40
1486980399.81,16864,11.44,74252.5,0.13,-42.75,-42.95,0,*4C
1486980401.05,16865,11.44,74252.8,0.09,-42.83,-43.09,0,*7B
1486980402.26,16866,11.44,74248.8,0.09,-42.25,-42.45,0,*7D
1486980403.5,16867,11.44,74254.0,0.09,-42.45,-42.83,0,*70
1486980404.73,16868,11.44,74250.3,0.09,-42.57,-42.69,0,*78
1486980405.95,16869,11.44,74252.0,0.09,-43.09,-43.41,0,*78
1486980407.16,16870,11.44,74252.5,0.09,-42.89,-43.21,0,*7F
1486980408.37,16871,11.44,74248.8,0.09,-41.67,-41.99,0,*7C
1486980409.63,16872,11.44,74250.3,0.07,-42.83,-43.21,0,*79
1486980410.82,16873,11.44,74250.3,0.09,-42.89,-43.49,0,*72
1486980412.06,16874,11.44,74252.0,0.09,-42.05,-42.45,0,*7C
1486980413.27,16875,11.44,74250.3,0.09,-42.69,-43.01,0,*76
1486980414.48,16876,11.44,74250.0,0.09,-42.83,-43.01,0,*71
1486980415.72,16877,11.44,74252.3,0.07,-43.21,-43.49,0,*7B
1486980416.93,16878,11.44,74248.5,0.09,-42.37,-42.69,0,*7F
1486980418.15,16879,11.44,74250.0,0.09,-43.09,-43.41,0,*79
1486980419.38,16880,11.44,74248.0,0.09,-42.57,-42.69,0,*7E
1486980420.61,16881,11.44,74252.8,0.09,-42.83,-43.21,0,*7B
1486980421.88,16882,11.44,74252.3,0.07,-42.83,-43.29,0,*7E
1486980423.09,16883,11.44,74256.3,0.09,-43.29,-43.49,0,*76
1486980424.3,16884,11.44,74248.0,0.09,-43.81,-43.87,0,*71
1486980425.51,16885,11.44,74248.8,0.09,-43.95,-44.33,0,*7D
1486980426.75,16886,11.44,74250.5,0.07,-43.21,-43.49,0,*75
1486980427.96,16887,11.44,74254.5,0.07,-42.63,-43.01,0,*7F
1486980429.2,16888,11.44,74248.0,0.07,-42.89,-43.29,0,*7E
1486980430.44,16889,11.44,74254.5,0.07,-42.89,-43.21,0,*77
1486980431.64,16890,11.44,74248.5,0.01,-43.01,-43.41,0,*7E
1486980432.83,16891,11.44,74250.3,0.05,-42.89,-43.15,0,*7B
1486980434.04,16892,11.44,74248.0,0.05,-43.55,-43.95,0,*70
1486980435.26,16893,11.38,74250.0,0.01,-43.61,-43.81,0,*77
1486980436.46,16894,11.44,74250.8,0.01,-43.87,-44.21,0,*75
1486980437.65,16895,11.44,74246.5,0.01,-43.35,-43.75,0,*7B
1486980438.87,16896,11.44,74252.5,0.01,-43.49,-43.67,0,*70
1486980440.1,16897,11.44,74250.8,0.01,-43.21,-43.55,0,*7E
1486980441.31,16898,11.44,74248.0,0.01,-43.81,-44.41,0,*79
1486980442.54,16899,11.44,74248.0,-0.01,-43.61,-43.95,0,*55
1486980443.81,16900,11.44,74250.5,-0.01,-42.69,-42.83,0,*5B
1486980445.02,16901,11.44,74250.5,0.01,-42.37,-42.57,0,*75
1486980446.21,16902,11.44,74248.8,0.01,-42.75,-43.01,0,*72
1486980447.43,16903,11.44,74248.3,-0.01,-43.15,-43.35,0,*5E
1486980448.68,16904,11.44,74246.3,-0.01,-42.95,-43.15,0,*52
1486980449.9,16905,11.38,74246.5,-0.03,-42.69,-42.75,0,*55
1486980451.17,16906,11.38,74248.8,-0.01,-42.19,-42.57,0,*53
1486980452.44,16907,11.44,74248.5,-0.01,-42.19,-42.57,0,*52
1486980453.72,16908,11.38,74246.5,-0.01,-42.69,-42.95,0,*54
1486980454.96,16909,11.44,74252.0,0.01,-42.57,-42.95,0,*75
1486980456.2,16910,11.44,74252.5,-0.01,-43.21,-43.61,0,*5A
1486980457.39,16911,11.44,74248.8,-0.03,-42.63,-42.89,0,*59
1486980458.67,16912,11.44,74248.0,-0.01,-42.95,-43.21,0,*52
1486980459.9,16913,11.44,74248.5,-0.01,-43.01,-43.41,0,*59
1486980461.14,16914,11.44,74250.5,-0.01,-42.51,-42.69,0,*51
1486980462.35,16915,11.44,74254.3,-0.03,-43.01,-43.41,0,*5D
1486980463.58,16916,11.38,74248.8,-0.01,-43.01,-43.35,0,*5F
1486980464.77,16917,11.44,74248.0,-0.03,-42.75,-43.15,0,*5C
1486980465.97,16918,11.44,74254.5,-0.03,-42.75,-43.01,0,*56
1486980467.24,16919,11.38,74246.0,-0.01,-42.69,-42.95,0,*54
1486980468.49,16920,11.44,74248.5,-0.01,-42.69,-43.01,0,*52
1486980469.73,16921,11.38,74248.8,-0.01,-43.21,-43.61,0,*58
1486980470.96,16922,11.38,74248.3,-0.01,-42.13,-42.51,0,*59
1486980472.16,16923,11.44,74248.8,0.01,-43.01,-43.41,0,*77
1486980473.4,16924,11.44,74250.8,-0.01,-42.37,-42.57,0,*5F
1486980474.63,16925,11.44,74250.8,-0.03,-42.95,-43.41,0,*52
1486980475.84,16926,11.38,74248.0,-0.03,-42.89,-43.21,0,*5A
1486980477.06,16927,11.44,74250.5,-0.03,-43.09,-43.49,0,*5C
1486980478.25,16928,11.38,74250.0,-0.03,-42.63,-42.89,0,*53
1486980479.47,16929,11.44,74250.5,-0.03,-42.25,-42.57,0,*53
1486980480.68,16930,11.44,74250.5,-0.03,-43.01,-43.41,0,*5A
1486980481.9,16931,11.38,74248.3,-0.03,-43.09,-43.61,0,*51
1486980483.12,16932,11.44,74250.8,-0.03,-43.09,-43.61,0,*52
1486980484.35,16933,11.44,74250.8,-0.03,-43.41,-43.67,0,*59
1486980485.56,16934,11.38,74250.0,-0.03,-43.21,-43.49,0,*54
1486980486.81,16935,11.38,74248.0,-0.03,-43.09,-43.29,0,*59
1486980488.05,16936,11.44,74254.8,-0.03,-42.83,-43.21,0,*51
1486980489.3,16937,11.44,74252.3,-0.05,-43.49,-43.67,0,*53
1486980490.57,16938,11.44,74252.8,-0.05,-43.67,-44.01,0,*57
1486980491.79,16939,11.38,74248.3,-0.07,-43.55,-43.95,0,*5F
1486980493.02,16940,11.44,74248.8,-0.07,-43.09,-43.49,0,*59
1486980494.27,16941,11.44,74250.5,-0.07,-43.09,-43.55,0,*55
1486980495.49,16942,11.38,74246.8,-0.07,-42.89,-43.29,0,*54
1486980496.68,16943,11.38,74248.3,-0.07,-43.49,-43.87,0,*5C
1486980497.93,16944,11.38,74250.8,-0.07,-43.29,-43.55,0,*52
1486980499.13,16945,11.38,74250.0,-0.07,-43.49,-43.87,0,*5A
1486980500.32,16946,11.38,74244.5,-0.07,-43.15,-43.35,0,*59